Location: Gro�bocka
(50.8204°N, 11.9702°E)
Time: 07:57:12
(UTC+00:00)

BREEZE-M R/B - Pass Details

Date: 29 October 2020
Orbit: 309 x 4521 km, 49.7° (Epoch: 01 December)

Event Time Altitude Azimuth Distance (km) Brightness Sun altitude
Rises 17:45:55 0° 277° (W) 2,516 7.9 -18.5°
Reaches altitude 10° 17:47:31 10° 275° (W) 1,843 6.8 -18.8°
Maximum altitude 17:51:30 70° 191° (SSW) 882 3.8 -19.4°
Enters shadow 17:55:05 29° 116° (ESE) 1,933 5.0 -20.0°
